Tiempo cada hora Muraveinyk

Hoy, 24 Octubre, Sábado

Tiempo Temperatura Precipitaciones Viento Presión Humedad
00:00 +16°C° 0 mm 5 mps 761 mmHg 89%
01:00 +17°C° 0 mm 5 mps 760 mmHg 84%
02:00 +17°C° 0 mm 5 mps 760 mmHg 80%
03:00 +17°C° 0 mm 5 mps 760 mmHg 84%
04:00 +17°C° 0 mm 4 mps 760 mmHg 88%
05:00 +15°C° 0 mm 4 mps 759 mmHg 92%
06:00 +17°C° 0 mm 4 mps 760 mmHg 90%
07:00 +16°C° 0 mm 5 mps 760 mmHg 89%
08:00 +17°C° 0 mm 5 mps 760 mmHg 87%
09:00 +19°C° 0 mm 5 mps 760 mmHg 81%
10:00 +20°C° 0 mm 5 mps 760 mmHg 76%
11:00 +21°C° 0 mm 4 mps 759 mmHg 70%
12:00 +22°C° 0 mm 4 mps 759 mmHg 64%
13:00 +23°C° 0 mm 4 mps 759 mmHg 57%
14:00 +25°C° 0 mm 4 mps 759 mmHg 51%
15:00 +22°C° 0 mm 4 mps 759 mmHg 58%
16:00 +21°C° 0 mm 4 mps 759 mmHg 65%
17:00 +20°C° 0 mm 4 mps 758 mmHg 72%
18:00 +20°C° 0 mm 4 mps 759 mmHg 76%
19:00 +19°C° 0 mm 4 mps 759 mmHg 81%
20:00 +19°C° 0 mm 4 mps 759 mmHg 85%
21:00 +18°C° 0 mm 4 mps 759 mmHg 81%
22:00 +18°C° 0 mm 4 mps 759 mmHg 76%
23:00 +18°C° 0 mm 3 mps 759 mmHg 72%

Mañana, 25 Octubre, Domingo

Tiempo Temperatura Precipitaciones Viento Presión Humedad
00:00 +17°C° 0 mm 3 mps 759 mmHg 69%
01:00 +17°C° 0 mm 3 mps 760 mmHg 65%
02:00 +17°C° 0 mm 3 mps 760 mmHg 62%
03:00 +17°C° 0 mm 2 mps 760 mmHg 61%
04:00 +17°C° 0 mm 2 mps 760 mmHg 60%
05:00 +17°C° 0 mm 2 mps 760 mmHg 59%
06:00 +18°C° 0 mm 1 mps 760 mmHg 58%
07:00 +19°C° 0 mm 1 mps 760 mmHg 57%
08:00 +19°C° 0 mm 1 mps 761 mmHg 56%
09:00 +20°C° 0 mm 1 mps 761 mmHg 52%
10:00 +21°C° 0 mm 1 mps 761 mmHg 49%
11:00 +20°C° 0 mm 2 mps 761 mmHg 45%
12:00 +21°C° 0 mm 2 mps 761 mmHg 44%
13:00 +21°C° 0 mm 2 mps 761 mmHg 43%
14:00 +23°C° 0 mm 2 mps 761 mmHg 43%
15:00 +21°C° 0 mm 2 mps 761 mmHg 46%
16:00 +20°C° 0 mm 2 mps 761 mmHg 50%
17:00 +19°C° 0 mm 2 mps 760 mmHg 54%
18:00 +18°C° 0 mm 2 mps 761 mmHg 57%
19:00 +18°C° 0 mm 3 mps 761 mmHg 60%
20:00 +17°C° 0 mm 4 mps 761 mmHg 63%
21:00 +17°C° 0 mm 4 mps 761 mmHg 65%
22:00 +17°C° 0 mm 4 mps 761 mmHg 67%
23:00 +15°C° 0 mm 4 mps 761 mmHg 70%

Pasado mañana, 26 Octubre, Lunes

Tiempo Temperatura Precipitaciones Viento Presión Humedad
00:00 +15°C° 0 mm 5 mps 761 mmHg 72%
01:00 +15°C° 0 mm 5 mps 761 mmHg 74%
02:00 +15°C° 0 mm 5 mps 761 mmHg 77%
03:00 +15°C° 0 mm 6 mps 761 mmHg 77%
04:00 +15°C° 0 mm 7 mps 761 mmHg 78%
05:00 +15°C° 0 mm 7 mps 761 mmHg 79%
06:00 +15°C° 0 mm 8 mps 761 mmHg 77%
07:00 +16°C° 0 mm 8 mps 761 mmHg 74%
08:00 +16°C° 0 mm 9 mps 761 mmHg 72%
09:00 +17°C° 0 mm 9 mps 761 mmHg 69%
10:00 +17°C° 0 mm 9 mps 761 mmHg 67%
11:00 +18°C° 0 mm 9 mps 761 mmHg 64%
12:00 +18°C° 0 mm 9 mps 761 mmHg 64%
13:00 +18°C° 0 mm 9 mps 760 mmHg 65%
14:00 +17°C° 0 mm 9 mps 760 mmHg 65%
15:00 +17°C° 0 mm 9 mps 760 mmHg 67%
16:00 +16°C° 0 mm 9 mps 760 mmHg 69%
17:00 +16°C° 0 mm 8 mps 760 mmHg 71%
18:00 +16°C° 0 mm 9 mps 760 mmHg 71%
19:00 +16°C° 0 mm 9 mps 760 mmHg 71%
20:00 +16°C° 0 mm 9 mps 761 mmHg 71%
21:00 +16°C° 0 mm 8 mps 760 mmHg 72%
22:00 +16°C° 0 mm 8 mps 760 mmHg 73%
23:00 +15°C° 0 mm 8 mps 760 mmHg 74%

, 27 Octubre, Martes

Tiempo Temperatura Precipitaciones Viento Presión Humedad
00:00 +15°C° 0 mm 8 mps 760 mmHg 75%
01:00 +15°C° 0 mm 8 mps 760 mmHg 75%
02:00 +15°C° 0 mm 8 mps 760 mmHg 75%
03:00 +15°C° 0 mm 8 mps 760 mmHg 75%
04:00 +15°C° 0 mm 7 mps 761 mmHg 76%
05:00 +15°C° 0 mm 7 mps 761 mmHg 76%
06:00 +15°C° 0 mm 7 mps 761 mmHg 74%
07:00 +15°C° 0 mm 7 mps 761 mmHg 73%
08:00 +15°C° 0 mm 7 mps 761 mmHg 71%
09:00 +16°C° 0 mm 7 mps 761 mmHg 68%
10:00 +17°C° 0 mm 7 mps 762 mmHg 64%
11:00 +17°C° 0 mm 7 mps 762 mmHg 61%
12:00 +17°C° 0 mm 7 mps 762 mmHg 61%
13:00 +17°C° 0 mm 7 mps 762 mmHg 61%
14:00 +17°C° 0 mm 8 mps 762 mmHg 61%
15:00 +16°C° 0 mm 8 mps 762 mmHg 62%
16:00 +16°C° 0 mm 8 mps 762 mmHg 63%
17:00 +15°C° 0 mm 8 mps 762 mmHg 64%
18:00 +15°C° 0 mm 8 mps 762 mmHg 64%
19:00 +15°C° 0 mm 8 mps 762 mmHg 63%
20:00 +15°C° 0 mm 8 mps 762 mmHg 62%
21:00 +15°C° 0 mm 8 mps 762 mmHg 64%
22:00 +13°C° 0 mm 8 mps 762 mmHg 66%
23:00 +13°C° 0 mm 8 mps 762 mmHg 68%

27 Octubre, Martes

Tiempo Temperatura Precipitaciones Viento Presión Humedad
00:00 +15°C° 0 mm 8 mps 760 mmHg 75%
01:00 +15°C° 0 mm 8 mps 760 mmHg 75%
02:00 +15°C° 0 mm 8 mps 760 mmHg 75%
03:00 +15°C° 0 mm 8 mps 760 mmHg 75%
04:00 +15°C° 0 mm 7 mps 761 mmHg 76%
05:00 +15°C° 0 mm 7 mps 761 mmHg 76%
06:00 +15°C° 0 mm 7 mps 761 mmHg 74%
07:00 +15°C° 0 mm 7 mps 761 mmHg 73%
08:00 +15°C° 0 mm 7 mps 761 mmHg 71%
09:00 +16°C° 0 mm 7 mps 761 mmHg 68%
10:00 +17°C° 0 mm 7 mps 762 mmHg 64%
11:00 +17°C° 0 mm 7 mps 762 mmHg 61%
12:00 +17°C° 0 mm 7 mps 762 mmHg 61%
13:00 +17°C° 0 mm 7 mps 762 mmHg 61%
14:00 +17°C° 0 mm 8 mps 762 mmHg 61%
15:00 +16°C° 0 mm 8 mps 762 mmHg 62%
16:00 +16°C° 0 mm 8 mps 762 mmHg 63%
17:00 +15°C° 0 mm 8 mps 762 mmHg 64%
18:00 +15°C° 0 mm 8 mps 762 mmHg 64%
19:00 +15°C° 0 mm 8 mps 762 mmHg 63%
20:00 +15°C° 0 mm 8 mps 762 mmHg 62%
21:00 +15°C° 0 mm 8 mps 762 mmHg 64%
22:00 +13°C° 0 mm 8 mps 762 mmHg 66%
23:00 +13°C° 0 mm 8 mps 762 mmHg 68%

28 Octubre, Miércoles

Tiempo Temperatura Precipitaciones Viento Presión Humedad
00:00 +14°C° 0 mm 7 mps 762 mmHg 68%
01:00 +12°C° 0 mm 7 mps 762 mmHg 68%
02:00 +12°C° 0 mm 7 mps 761 mmHg 68%
03:00 +12°C° 0 mm 7 mps 761 mmHg 70%
04:00 +11°C° 0 mm 7 mps 761 mmHg 72%
05:00 +11°C° 0 mm 7 mps 761 mmHg 73%
06:00 +11°C° 0 mm 8 mps 761 mmHg 74%
07:00 +12°C° 0 mm 8 mps 761 mmHg 74%
08:00 +12°C° 0 mm 8 mps 761 mmHg 75%
09:00 +12°C° 0 mm 8 mps 761 mmHg 74%
10:00 +13°C° 0 mm 8 mps 761 mmHg 73%
11:00 +13°C° 0 mm 8 mps 761 mmHg 72%
12:00 +15°C° 0 mm 8 mps 761 mmHg 71%
13:00 +15°C° 0 mm 8 mps 761 mmHg 70%
14:00 +15°C° 0 mm 8 mps 761 mmHg 69%
15:00 +15°C° 0 mm 8 mps 761 mmHg 71%
16:00 +14°C° 0 mm 7 mps 761 mmHg 73%
17:00 +14°C° 0 mm 7 mps 761 mmHg 75%
18:00 +14°C° 0 mm 7 mps 761 mmHg 76%
19:00 +14°C° 0 mm 7 mps 761 mmHg 77%
20:00 +14°C° 0 mm 7 mps 761 mmHg 78%
21:00 +14°C° 0 mm 6 mps 761 mmHg 79%
22:00 +14°C° 0 mm 6 mps 760 mmHg 79%
23:00 +14°C° 0 mm 6 mps 760 mmHg 80%

29 Octubre, Jueves

Tiempo Temperatura Precipitaciones Viento Presión Humedad
00:00 +13°C° 0 mm 6 mps 760 mmHg 81%
01:00 +13°C° 0 mm 6 mps 760 mmHg 81%
02:00 +13°C° 0 mm 6 mps 760 mmHg 82%
03:00 +11°C° 0 mm 6 mps 760 mmHg 82%
04:00 +11°C° 0 mm 6 mps 760 mmHg 82%
05:00 +11°C° 0 mm 6 mps 760 mmHg 82%
06:00 +11°C° 0 mm 6 mps 760 mmHg 81%
07:00 +11°C° 0 mm 6 mps 760 mmHg 79%
08:00 +11°C° 0 mm 6 mps 760 mmHg 78%
09:00 +13°C° 0 mm 6 mps 760 mmHg 75%
10:00 +14°C° 0 mm 6 mps 761 mmHg 71%
11:00 +15°C° 0 mm 6 mps 761 mmHg 68%
12:00 +15°C° 0 mm 6 mps 761 mmHg 67%
13:00 +16°C° 0 mm 6 mps 760 mmHg 66%
14:00 +16°C° 0 mm 5 mps 760 mmHg 65%
15:00 +15°C° 0 mm 5 mps 760 mmHg 68%
16:00 +14°C° 0 mm 5 mps 760 mmHg 70%
17:00 +14°C° 0 mm 5 mps 761 mmHg 73%
18:00 +13°C° 0 mm 4 mps 761 mmHg 73%
19:00 +13°C° 0 mm 4 mps 761 mmHg 73%
20:00 +13°C° 0 mm 4 mps 761 mmHg 72%
21:00 +13°C° 0 mm 4 mps 761 mmHg 71%
22:00 +13°C° 0 mm 4 mps 761 mmHg 70%
23:00 +13°C° 0 mm 3 mps 761 mmHg 69%
Mostrar más

Necesitamos Su Consentimiento

Meteoprog y nuestros Proveedores de Servicios pueden almacenar y acceder a sus datos personales como cookies, identificadores de dispositivo u otras tecnologías similares de su dispositivo y procesar dichos datos para personalizar contenido y anuncios, además de ofrecer funciones de redes sociales y analizar el tráfico.

  • Almacenar y/o acceder a información en su dispositivo

    Se puede almacenar o acceder a cookies, identificadores de dispositivo u otra información de su dispositivo para los fines anteriormente indicados.

  • Anuncios y contenido personalizados, medición de anuncios y contenido, percepciones del público, y desarrollo de productos

    Los anuncios y el contenido pueden personalizarse en base a su perfil. Se pueden añadir más datos para personalizar mejor los anuncios y contenidos. Se puede medir el rendimiento de los anuncios y contenidos. Se puede obtener la percepción sobre el público que ha visto los anuncios y contenidos. Dichos datos pueden usarse para desarrollar o mejorar la experiencia del usuario, sistemas y software.

Al hacer clic en ‘Estoy De Acuerdo’ usted permitirá el uso de las cookies, identificadores de dispositivo, balizas web u otras tecnologías similares indicadas. Su configuración puede cambiarse desde el navegador de su dispositivo.

Para ciertos fines, los intereses legítimos pueden ser considerados por encima del consentimiento. Puede leer más sobre ello en nuestra Política de Privacidad y Cookies.